User: anonymous   Login
Location: Newark
(12.4436°N, 0.6167°W)
Time: 21:07:47
(UTC+00:00)
Language:

SR - Orbit

View from above orbital plane
View from above orbital plane
View from above satellite
View from above satellite

Ground track
Ground track

The orbit data is extracted from the following two-line orbital elements,

1    46U 60007B   19346.34347957 -.00000037  00000-0  15998-4 0  9995
2    46  66.6889 194.7933 0217401 271.3556  86.2657 14.49262179111849
Epoch (UTC): 12 December 2019 08:14:36
Eccentricity: 0.0217401
inclination: 66.6889°
perigee height: 573 km
apogee height: 882 km
right ascension of ascending node: 194.7933°
argument of perigee: 271.3556°
revolutions per day: 14.49262179
mean anomaly at epoch: 86.2657°
orbit number at epoch: 11184

The dashed part of the orbit path shows where the satellite is in the earth's shadow,  

DLR